Weather in Kulikov

Ukraine / Lviv District     49°58′44″N   24°04′34″E
temp.,
°C
wind,
m/s
gust,
m/s
humid.,
%
clouds,
%
prec.,
mm/h
press.,
hPa
HPBL,
m
25 june, sat
sat2500:00+15ese22750 0.0 101613
03:00+14ese11800 0.0 101511
06:00+14ese22840 0.0 101512
09:00+20ese34610 0.0 1016334
12:00+24ese45470 0.0 10151482
15:00+26ese56395 0.0 10151941
18:00+26ese56430 0.0 10142098
21:00+20e39740 0.0 1015212
26 june, sun
sun2600:00+16ese23875 0.0 101630
03:00+15ese36865 0.0 101794
06:00+14e35915 0.0 1017103
09:00+21ese58635 0.0 1018494
12:00+25ese564991 0.0 10181434
15:00+26e564885 0.0 10182018
18:00+25e66575 0.0 10181350
21:00+20e35796 0.1 1019112
27 june, mon
mon2700:00+17ese239273 0.0 102048
03:00+16ese359333 0.0 1020104
06:00+15ese24947 0.0 102089
09:00+21ese47715 0.0 1021533
12:00+26se57532 0.0 10201520
15:00+28ese564499 0.0 10192340
18:00+26ese67573 0.0 1019947
21:00+22ese497450 0.6 1019238
28 june, tue
tue2800:00+21se396680 0.0 1019228
03:00+17e33835 0.0 101945
06:00+17ese36813 0.0 1019110
09:00+24sse485715 0.0 1019442
12:00+28se674145 0.0 10191771
15:00+29se553759 0.0 10182168
18:00+29se45366 0.0 10182281
21:00+21se11778 0.9 101822
29 june, wed
wed2900:00+19ene228867 1.6 101920
03:00+18sse34920 2.0 101963
06:00+17s12930 0.0 101916
09:00+22ene34753 0.0 1018402
12:00+28ese45515 0.0 10181183
15:00+31ese553894 0.0 10163024
18:00+30ese564192 0.0 10152168
21:00+25e4106790 0.1 1015324